Terminal Aerodrome Forecast
Issued by NWS Spokane, WA

Home | Current Version | Previous Version | Text Only | Print | Product List | Glossary On
Versions: 1 2 3 4 5 6 7 8 9 10 11 12 13 14
000
FTUS46 KOTX 271724
TAFEAT
TAF
KEAT 271724Z 2718/2818 34008KT P6SM FEW070 FEW200
     FM272000 VRB04KT P6SM FEW100 FEW200
     FM280130 30010G15KT P6SM SKC
     FM280600 30008KT P6SM SKC=

USA.gov is the U.S. government's official web portal to all federal, state and local government web resources and services.